Home > Weather > Sunrise > Past weeks

Flag for USA Weather for the Past 2 Weeks in Sunrise, Florida, USA

Now
76 °F

Passing clouds.


Feels Like: 78 °F
Forecast: 65 / 81 °F
Wind: 10 mph from West

Location: Fort Lauderdale Executive Airport

Current Time: May 5, 2016 at 10:09:10 PM

Latest Report: May 5, 2016 at 8:53 PM


Visibility: 10 mi

Pressure: 29.80 "Hg

Humidity: 48%

Dew Point: 55 °F

Location of SunriseLocation

Historic Weather in Sunrise — Graph

°F

Sunrise Temperature Yesterday

Maximum temperature yesterday: 85 °F (at 11:53 AM)
Minimum temperature yesterday: 70 °F (at 4:53 PM)
Average temperature yesterday: 75 °F

High & Low Weather Summary for the Past Weeks

 TemperatureHumidityPressure
High88 °F (Apr 23, 2:53 PM)96% (May 4, 3:53 PM)30.11 "Hg (May 4, 3:53 PM)
Low64 °F (May 5, 5:53 AM)32% (Apr 23, 6:53 PM)29.70 "Hg (May 4, 9:53 PM)
Average78 °F64%29.96 "Hg
* Reported Apr 20 8:53 PM — May 5 8:53 PM, Sunrise, Weather by CustomWeather, © 2016

Note: Actual official high and low records may vary slightly from our data, if they occured in-between our weather recording intervals... More about our weather records

Advertising

Sunrise Weather History for the Previous 24 Hours

Scroll right to see more
 ConditionsComfort  
Time TempWeatherWind HumidityBarometerVisibility
8:53 PM
Thu, May 5
76 °FPassing clouds.10 mph48%29.80 "Hg10 mi
7:53 PM78 °FPartly sunny.7 mph40%29.78 "Hg10 mi
6:53 PM79 °FPassing clouds.10 mph38%29.76 "Hg10 mi
5:53 PM81 °FScattered clouds.12 mph37%29.76 "Hg10 mi
4:53 PM81 °FScattered clouds.13 mph38%29.77 "Hg10 mi
3:53 PM80 °FSunny.14 mph36%29.78 "Hg10 mi
2:53 PM80 °FSunny.12 mph35%29.79 "Hg10 mi
1:53 PM77 °FSunny.12 mph37%29.80 "Hg10 mi
12:53 PM76 °FSunny.14 mph39%29.81 "Hg10 mi
11:53 AM74 °FSunny.14 mph41%29.83 "Hg10 mi
10:53 AM73 °FPassing clouds.16 mph48%29.82 "Hg10 mi
9:53 AM70 °FSunny.10 mph53%29.82 "Hg10 mi
8:53 AM68 °FSunny.9 mph70%29.81 "Hg10 mi
7:53 AM65 °FSunny.8 mph85%29.80 "Hg10 mi
6:53 AM64 °FClear.9 mph90%29.77 "Hg10 mi
5:53 AM64 °FClear.9 mph87%29.75 "Hg10 mi
4:53 AM65 °FClear.9 mph87%29.73 "Hg10 mi
3:53 AM66 °FClear.9 mph90%29.73 "Hg10 mi
2:53 AM67 °FPassing clouds.8 mph93%29.73 "Hg10 mi
1:53 AM69 °FPassing clouds.10 mph90%29.73 "Hg10 mi
12:53 AM71 °FPartly cloudy.16 mph93%29.72 "Hg10 mi
11:53 PM
Wed, May 4
71 °FPartly cloudy.15 mph93%29.72 "Hg10 mi
10:53 PM71 °FLight rain. Passing clouds.15 mph90%29.72 "Hg10 mi
Weather by CustomWeather, © 2016

See weather overviewHow to use our weather pages